Weather History for Asheville, NC

Change the Weather History Date:

Friday, June 22, 2007

  Actual Average Record
Temperature  
Mean Temperature 68 °F 72 °F  
Max Temperature 86 °F 83 °F 94 °F (1964)
Min Temperature 52 °F 61 °F 49 °F (1985)
Degree Days  
Heating Degree Days 0 0  
Month to date heating degree days 11  
Since 1 June heating degree days 11  
Since 1 July heating degree days 4192  
Cooling Degree Days 3 7  
Month to date cooling degree days 118  
Year to date cooling degree days 176  
Since 1 June cooling degree days 118  
Growing Degree Days 18 (Base 50)    
Moisture  
Dew Point 50 °F    
Average Humidity 52    
Maximum Humidity 86    
Minimum Humidity 29    
Precipitation  
Precipitation 0.00 in 0.16 in 1.23 in (1928)
Month to date precipitation 3.39  
Year to date precipitation 21.64  
Snow  
Snow 0.00 in 0.00 in 0.00 in ()
Month to date snowfall 0.0  
Since 1 June snowfall 0.0  
Since 1 July snowfall 9.9  
Snow Depth -    
Sea Level Pressure  
Sea Level Pressure 30.01 in    
Wind  
Wind Speed 4 mph (NNW)    
Max Wind Speed 13 mph    
Max Gust Speed 21 mph    
Visibility 10 miles    
Events      
T = Trace of Precipitation, MM = Missing Value Source: NWS Daily Summary

Daily Weather History Graph

Daily Weather History Graph

Search for Another Location

Airport:

Trip Planner

Search our weather history database for the weather conditions in past years. The results will help you decide how hot, cold, wet, or windy it might be!

Date:

Astronomy

Jun. 22, 2007 Rise Set
Actual Time 6:15 AM EDT 8:48 PM EDT
Civil Twilight 5:45 AM EDT 9:18 PM EDT
Nautical Twilight 5:08 AM EDT 9:55 PM EDT
Astronomical Twilight 4:27 AM EDT 10:36 PM EDT
Moon 1:45 PM EDT (6/22) 1:15 AM EDT (6/22)
Length of Visible Light 15h 33m
Length of Day
14h 33m
Waxing Crescent, 51% of the Moon is Illuminated
Jun 22
Waxing Crescent
Jun 30
Full
Jul 7
Last Quarter
Jul 14
New
Jul 22
First Quarter

Hourly Weather History & Observations

Time (EDT) Temp. Dew Point Humidity Pressure Visibility Wind Dir Wind Speed Gust Speed Precip Events Conditions
12:54 AM 59.0 °F 48.9 °F 69% 30.08 in 10.0 mi North 3.5 mph - N/A   Clear
1:54 AM 57.0 °F 48.9 °F 74% 30.08 in 10.0 mi Calm Calm - N/A   Clear
2:54 AM 55.0 °F 48.9 °F 80% 30.07 in 10.0 mi Calm Calm - N/A   Clear
3:54 AM 54.0 °F 48.9 °F 83% 30.07 in 10.0 mi NW 3.5 mph - N/A   Clear
4:54 AM 54.0 °F 48.0 °F 80% 30.06 in 10.0 mi Variable 3.5 mph - N/A   Clear
5:54 AM 53.1 °F 48.0 °F 83% 30.06 in 10.0 mi Calm Calm - N/A   Clear
6:54 AM 52.0 °F 48.0 °F 86% 30.06 in 10.0 mi Calm Calm - N/A   Clear
7:54 AM 60.1 °F 48.9 °F 67% 30.06 in 10.0 mi NNW 4.6 mph - N/A   Clear
8:54 AM 66.9 °F 50.0 °F 54% 30.06 in 10.0 mi NW 5.8 mph - N/A   Clear
9:54 AM 72.0 °F 50.0 °F 46% 30.06 in 10.0 mi North 5.8 mph - N/A   Clear
10:54 AM 78.1 °F 50.0 °F 37% 30.03 in 10.0 mi North 8.1 mph - N/A   Clear
11:54 AM 81.0 °F 48.9 °F 33% 30.03 in 10.0 mi NNW 10.4 mph - N/A   Clear
12:54 PM 82.9 °F 48.9 °F 31% 30.02 in 10.0 mi NNW 10.4 mph 20.7 mph N/A   Clear
1:54 PM 82.9 °F 50.0 °F 32% 30.01 in 10.0 mi North 11.5 mph 16.1 mph N/A   Clear
2:54 PM 84.0 °F 48.9 °F 29% 29.99 in 10.0 mi NNW 10.4 mph - N/A   Clear
3:54 PM 84.9 °F 48.9 °F 29% 29.98 in 10.0 mi NNE 10.4 mph 17.3 mph N/A   Clear
4:54 PM 84.0 °F 50.0 °F 31% 29.95 in 10.0 mi NNE 8.1 mph - N/A   Clear
5:54 PM 84.0 °F 48.9 °F 29% 29.94 in 10.0 mi NNW 8.1 mph - N/A   Clear
6:54 PM 82.0 °F 48.0 °F 30% 29.94 in 10.0 mi NNW 12.7 mph - N/A   Clear
7:54 PM 81.0 °F 48.9 °F 33% 29.94 in 10.0 mi North 6.9 mph - N/A   Mostly Cloudy
8:54 PM 75.0 °F 51.1 °F 43% 29.94 in 10.0 mi NW 5.8 mph - N/A   Clear
9:54 PM 72.0 °F 53.1 °F 51% 29.94 in 10.0 mi NNW 4.6 mph - N/A   Clear
10:54 PM 69.1 °F 54.0 °F 58% 29.94 in 10.0 mi Calm Calm - N/A   Clear
11:54 PM 64.9 °F 55.0 °F 70% 29.95 in 10.0 mi Calm Calm - N/A   Clear